Weather in Amudaryo

Uzbekistan     38°46′30″N   65°51′12″E
temp.,
°C
wind,
m/s
gust,
m/s
humid.,
%
clouds,
%
prec.,
mm/h
press.,
hPa
HPBL,
m
8 march, mon
mon823:00+8ese22640 0.0 101922
02:00+8ese236522 0.0 101924
05:00+8e346661 0.0 101938
08:00+8e236767 0.0 102147
11:00+14ne114565 0.0 1021573
14:00+16wsw2339100 0.0 10201331
17:00+17wnw1236100 0.0 10181396
20:00+13ne344870 0.0 101940
9 march, tue
tue923:00+12e345637 0.0 101953
02:00+11e445969 0.0 101675
05:00+10e456179 0.0 101466
08:00+11ene4753100 0.0 1013125
11:00+17ene5734100 0.0 1012365
14:00+22e3422100 0.0 1009777
17:00+21w4629100 0.0 1007148
20:00+18ene5533100 0.0 100880
10 march, wed
wed1023:00+15nnw344294 0.0 100960
02:00+14ese5747100 0.0 1010106
05:00+13ssw455288 0.3 101260
08:00+12wnw3464100 0.3 1014124
11:00+14nw5645100 0.3 1016586
14:00+16n5538100 0.1 1015852
17:00+15nnw5545100 0.1 10141118
20:00+12nnw6946100 0.0 1016482
11 march, thu
thu1123:00+9nnw91164100 0.1 1018588
02:00+7nnw5780100 0.4 1020443
05:00+7nw3575100 0.5 1022666
08:00+6nnw237467 0.1 1024272
11:00+9wsw115333 0.1 1023771
14:00+13nne01370 0.0 1020925
17:00+14ne12310 0.0 1017873
20:00+12ne35420 0.0 1017103
12 march, fri
fri1223:00+10ne46500 0.0 1015147
02:00+9e47540 0.0 1012132
05:00+9e46474 0.0 101079
08:00+10e343585 0.0 100866
11:00+19ssw582592 0.0 1006497
14:00+24ssw71317100 0.0 10042747
17:00+23s71419100 0.0 1002779
20:00+19se71226100 0.0 1003192